Location: Alsip
(41.6689°N, 87.7387°W)
Time: 15:09:14
(UTC+00:00)

Cosmos 921 Rocket - Pass Details

Date: 14 July 2020
Orbit: 572 x 631 km, 75.8° (Epoch: 12 August)

Event Time Altitude Azimuth Distance (km) Brightness Sun altitude
Rises 08:34:46 0° 339° (NNW) 2,889 6.9 -17.0°
Reaches altitude 10° 08:37:03 10° 336° (NNW) 1,970 6.0 -16.7°
Maximum altitude 08:41:22 61° 257° (WSW) 684 3.0 -16.2°
Enters shadow 08:44:01 22° 182° (S) 1,314 4.3 -15.9°
